Location: Vihti�l�
(61.3833°N, 23.0667°E)
Time: 05:06:32
(UTC+00:00)

Cosmos 2154 Rocket - Pass Details

Date: 29 November 2020
Orbit: 966 x 996 km, 82.9° (Epoch: 22 January)

Event Time Altitude Azimuth Distance (km) Brightness Sun altitude
Rises 05:12:14 0° 206° (SSW) 3,664 7.0 -12.4°
Reaches altitude 10° 05:14:46 10° 210° (SSW) 2,724 6.3 -12.1°
Maximum altitude 05:20:57 62° 291° (WNW) 1,099 4.0 -11.4°
Drops below altitude 10° 05:27:14 10° 12° (NNE) 2,761 6.2 -10.7°
Sets 05:29:50 0° 16° (NNE) 3,717 6.9 -10.5°
